Regional Weather Roundup
Issued by NWS

Home | Current Version | Previous Version | Graphics & Text | Print | Product List | Glossary On
Versions: 1 2 3 4 5 6 7 8 9 10 11 12 13 14 15 16 17 18 19 20 21 22 23 24 25 26 27 28 29 30 31 32 33 34 35 36 37 38 39 40 41 42 43 44 45 46 47 48 49 50
000
ASUS44 KMEG 271610
RWRTN
TENNESSEE HOURLY STATE WEATHER ROUNDUP
NATIONAL WEATHER SERVICE MEMPHIS TN
1100 AM CDT TUE SEP 27 2016

TNZ002-004-019-021-049-052-054-088>092-271700-
WEST TENNESSEE

CITY           SKY/WX    TMP DP  RH WIND       PRES   REMARKS
MEMPHIS INTL   MOSUNNY   74  43  32 VRB3G16   30.06F
NWS MEMPHIS      N/A     71 N/A N/A MISG        N/A
JACKSON        SUNNY    N/A N/A N/A NE3       30.06F
DYERSBURG      SUNNY    N/A N/A N/A MISG        N/A
UNION CITY     SUNNY     70  46  43 NW6       30.05F
PARIS          SUNNY     70  43  37 N6        30.07S
HUNTINGDON     SUNNY     72  45  37 NW5       30.05F
LEXINGTON      SUNNY     70  48  46 VRB5      30.05S
$$

TNZ008-025-027-028-033-062-065-066-271700-
NORTH MIDDLE TENNESSEE

CITY           SKY/WX    TMP DP  RH WIND       PRES   REMARKS
NASHVILLE      MOSUNNY   71  48  43 N8        30.05F
PORTLAND       SUNNY     68  43  40 VRB5      30.05F
CLARKSVILLE    SUNNY     69  49  48 CALM      30.05F
SMYRNA         SUNNY     71  47  42 CALM      30.05
COOKEVILLE     SUNNY     72  46  40 VRB5      30.02F
GALLATIN       SUNNY     70  45  40 VRB5      30.07F
CROSSVILLE     SUNNY     71  39  31 CALM      30.04F
$$

TNZ061-075-076-078-094-096-097-271700-
SOUTH MIDDLE TENNESSEE

CITY           SKY/WX    TMP DP  RH WIND       PRES   REMARKS
FAYETTEVILLE   SUNNY     72  52  49 VRB5G15   30.02F
TULLAHOMA      SUNNY     72  50  46 N5        30.03F
WINCHESTER     SUNNY     73  63  68 N6        30.01F
MCMINNVILLE    SUNNY     72  48  43 NE6       30.03F
COLUMBIA       SUNNY     70  54  56 VRB3      30.02F
SHELBYVILLE    SUNNY     73  48  40 VRB5      30.03F
$$

TNZ017-018-042-046-047-271700-
NORTHEAST TENNESSEE

CITY           SKY/WX    TMP DP  RH WIND       PRES   REMARKS
TRI CITIES     PTSUNNY   69  62  78 CALM      30.02F
ELIZABETHTON   DRIZZLE   70  64  83 SW6       30.02S
$$

TNZ012-013-036-069-073-074-271700-
CENTRAL EAST TENNESSEE

CITY           SKY/WX    TMP DP  RH WIND       PRES   REMARKS
KNOXVILLE      CLOUDY    69  57  65 CALM      30.01F
OAK RIDGE      MOSUNNY   69  45  41 VRB5      30.02F
DOWNTOWN KNOXV CLOUDY    70  55  60 CALM      30.01F
GATLINBURG     CLOUDY    70  61  73 CALM      30.01S
MORRISTOWN     CLOUDY    68  61  77 CALM      30.01F
JACKSBORO      SUNNY     72  41  33 CALM      30.04F
$$

TNZ083-085-099-271700-
SOUTHEAST TENNESSEE

CITY           SKY/WX    TMP DP  RH WIND       PRES   REMARKS
CHATTANOOGA    CLOUDY    72  65  78 VRB5      30.00F
$$

SKY/WX REPORTED AS FAIR MEANS FEW OR NO CLOUDS BELOW
12 THOUSAND FEET.





USA.gov is the U.S. government's official web portal to all federal, state and local government web resources and services.